"read_dt","SO2 (ppb)","flags","PMT voltage (V)","lamp voltage (V)","lamp intensity (Hz)","internal temp (C)","react chamber temp (C)","sample flow (l/min)","pres (mmHg)","SO2 bkg (ppb)","SO2 coefficient"
2017-05-14 00:00:00,1783E-3,5C000400,-0724,0835,12135,027.6,045.4,0.221,751.1,01.17,0.508
2017-05-14 00:01:00,1761E-3,5C000400,-0724,0835,12046,027.6,045.4,0.222,751.1,01.17,0.508
2017-05-14 00:02:00,1784E-3,5C000400,-0724,0835,12191,027.6,045.5,0.221,751.1,01.17,0.508
2017-05-14 00:03:00,1792E-3,5C000400,-0724,0834,11897,027.7,045.4,0.222,751.1,01.17,0.508
2017-05-14 00:04:00,1745E-3,5C000400,-0724,0836,12163,027.7,045.4,0.222,751.1,01.17,0.508
2017-05-14 00:05:00,1822E-3,5C000400,-0724,0835,12070,027.7,045.4,0.222,751.0,01.17,0.508
2017-05-14 00:06:00,1797E-3,5C000400,-0724,0834,12024,027.6,045.4,0.222,751.0,01.17,0.508
2017-05-14 00:07:00,1822E-3,5C000400,-0724,0834,12223,027.6,045.5,0.221,751.0,01.17,0.508
2017-05-14 00:08:00,1799E-3,5C000400,-0724,0835,12075,027.6,045.5,0.222,751.0,01.17,0.508
2017-05-14 00:09:00,1732E-3,5C000400,-0724,0835,12139,027.6,045.5,0.221,751.0,01.17,0.508
2017-05-14 00:10:00,1660E-3,5C000400,-0724,0835,11999,027.6,045.5,0.222,751.0,01.17,0.508
2017-05-14 00:11:00,1727E-3,5C000400,-0724,0835,12053,027.6,045.5,0.222,751.0,01.17,0.508
2017-05-14 00:12:00,1638E-3,5C000400,-0724,0835,12071,027.6,045.4,0.222,751.0,01.17,0.508
2017-05-14 00:13:00,1679E-3,5C000400,-0724,0835,11970,027.6,045.4,0.222,751.0,01.17,0.508
2017-05-14 00:14:00,1853E-3,5C000400,-0724,0835,12005,027.6,045.4,0.222,751.0,01.17,0.508
2017-05-14 00:15:00,1810E-3,5C000400,-0724,0835,12043,027.6,045.5,0.222,751.0,01.17,0.508
2017-05-14 00:16:00,1636E-3,5C000400,-0724,0835,12114,027.6,045.5,0.222,751.0,01.17,0.508
2017-05-14 00:17:00,1731E-3,5C000400,-0724,0835,12253,027.6,045.4,0.222,751.0,01.17,0.508
2017-05-14 00:18:00,1694E-3,5C000400,-0724,0835,12150,027.6,045.4,0.222,751.0,01.17,0.508
2017-05-14 00:19:00,1639E-3,5C000400,-0724,0834,11849,027.6,045.4,0.222,751.0,01.17,0.508
2017-05-14 00:20:00,1718E-3,5C000400,-0724,0834,12043,027.6,045.4,0.222,751.0,01.17,0.508
2017-05-14 00:21:00,1774E-3,5C000400,-0724,0835,12033,027.6,045.4,0.222,750.9,01.17,0.508
2017-05-14 00:22:00,1727E-3,5C000400,-0724,0838,12267,027.6,045.4,0.222,750.9,01.17,0.508
2017-05-14 00:23:00,1709E-3,5C000400,-0724,0835,12041,027.5,045.5,0.222,750.9,01.17,0.508
2017-05-14 00:24:00,1717E-3,5C000400,-0724,0838,12152,027.5,045.4,0.222,750.9,01.17,0.508
2017-05-14 00:25:00,1723E-3,5C000400,-0724,0837,12145,027.6,045.4,0.222,750.8,01.17,0.508
2017-05-14 00:26:00,1744E-3,5C000400,-0724,0836,12136,027.6,045.4,0.222,750.8,01.17,0.508
2017-05-14 00:27:00,1776E-3,5C000400,-0724,0837,12138,027.6,045.4,0.222,750.8,01.17,0.508
2017-05-14 00:28:00,1712E-3,5C000400,-0724,0836,12072,027.6,045.4,0.222,750.8,01.17,0.508
2017-05-14 00:29:00,1735E-3,5C000400,-0724,0835,12082,027.6,045.4,0.222,750.8,01.17,0.508
2017-05-14 00:30:00,1686E-3,5C000400,-0724,0835,12244,027.6,045.4,0.222,750.8,01.17,0.508
2017-05-14 00:31:00,1790E-3,5C000400,-0724,0836,12086,027.6,045.4,0.222,750.8,01.17,0.508
2017-05-14 00:32:00,1748E-3,5C000400,-0724,0835,12109,027.6,045.5,0.222,750.8,01.17,0.508
2017-05-14 00:33:00,1766E-3,5C000400,-0724,0835,12073,027.6,045.4,0.222,750.7,01.17,0.508
2017-05-14 00:34:00,1852E-3,5C000400,-0724,0836,12156,027.6,045.5,0.222,750.7,01.17,0.508
2017-05-14 00:35:00,1768E-3,5C000400,-0724,0835,12201,027.6,045.4,0.222,750.8,01.17,0.508
2017-05-14 00:36:00,1684E-3,5C000400,-0724,0836,11887,027.6,045.4,0.222,750.8,01.17,0.508
2017-05-14 00:37:00,1791E-3,5C000400,-0724,0836,12071,027.6,045.4,0.222,750.8,01.17,0.508
2017-05-14 00:38:00,1636E-3,5C000400,-0724,0835,12217,027.6,045.4,0.222,750.8,01.17,0.508
2017-05-14 00:39:00,1932E-3,5C000400,-0724,0835,12017,027.5,045.4,0.222,750.8,01.17,0.508
2017-05-14 00:40:00,1721E-3,5C000400,-0724,0836,12063,027.5,045.4,0.222,750.8,01.17,0.508
2017-05-14 00:41:00,1843E-3,5C000400,-0724,0835,11902,027.5,045.4,0.222,750.8,01.17,0.508
2017-05-14 00:42:00,1676E-3,5C000400,-0724,0834,12107,027.6,045.4,0.222,750.8,01.17,0.508
2017-05-14 00:43:00,1783E-3,5C000400,-0724,0835,11905,027.5,045.4,0.222,750.8,01.17,0.508
2017-05-14 00:44:00,1742E-3,5C000400,-0724,0835,12113,027.5,045.4,0.222,750.8,01.17,0.508
2017-05-14 00:45:00,1749E-3,5C000400,-0724,0835,12080,027.5,045.5,0.222,750.8,01.17,0.508
2017-05-14 00:46:00,1767E-3,5C000400,-0724,0836,12227,027.5,045.5,0.222,750.8,01.17,0.508
2017-05-14 00:47:00,1842E-3,5C000400,-0724,0835,12123,027.5,045.4,0.222,750.8,01.17,0.508
2017-05-14 00:48:00,1628E-3,5C000400,-0724,0835,12008,027.5,045.4,0.222,750.8,01.17,0.508
2017-05-14 00:49:00,1762E-3,5C000400,-0724,0835,12061,027.5,045.4,0.222,750.8,01.17,0.508
2017-05-14 00:50:00,1817E-3,5C000400,-0724,0834,12075,027.5,045.4,0.222,750.8,01.17,0.508
2017-05-14 00:51:00,1528E-3,5C000400,-0724,0836,12134,027.5,045.4,0.222,750.8,01.17,0.508
2017-05-14 00:52:00,1762E-3,5C000400,-0724,0835,12097,027.5,045.4,0.222,750.9,01.17,0.508
2017-05-14 00:53:00,1820E-3,5C000400,-0724,0836,12141,027.5,045.4,0.222,750.9,01.17,0.508
2017-05-14 00:54:00,1732E-3,5C000400,-0724,0835,12204,027.5,045.4,0.222,750.9,01.17,0.508
2017-05-14 00:55:00,1739E-3,5C000400,-0724,0836,12034,027.5,045.4,0.222,750.9,01.17,0.508
2017-05-14 00:56:00,1743E-3,5C000400,-0724,0835,11997,027.5,045.4,0.222,750.9,01.17,0.508
2017-05-14 00:57:00,1905E-3,5C000400,-0724,0836,12003,027.5,045.4,0.222,750.8,01.17,0.508
2017-05-14 00:58:00,1808E-3,5C000400,-0724,0835,12136,027.5,045.5,0.222,750.8,01.17,0.508
2017-05-14 00:59:00,1836E-3,5C000400,-0724,0835,12114,027.5,045.4,0.222,750.8,01.17,0.508
2017-05-14 01:00:00,1968E-3,5C000400,-0724,0835,12048,027.5,045.4,0.222,750.8,01.17,0.508
2017-05-14 01:01:00,1864E-3,5C000400,-0724,0835,11989,027.5,045.4,0.222,750.8,01.17,0.508
2017-05-14 01:02:00,1718E-3,5C000400,-0724,0836,12108,027.5,045.4,0.222,750.8,01.17,0.508
2017-05-14 01:03:00,1865E-3,5C000400,-0724,0836,12209,027.5,045.4,0.222,750.8,01.17,0.508
2017-05-14 01:04:00,1540E-3,5C000400,-0724,0835,11906,027.4,045.4,0.222,750.8,01.17,0.508
2017-05-14 01:05:00,1756E-3,5C000400,-0724,0836,12178,027.4,045.4,0.222,750.7,01.17,0.508
2017-05-14 01:06:00,1798E-3,5C000400,-0724,0835,12138,027.5,045.5,0.222,750.7,01.17,0.508
2017-05-14 01:07:00,1808E-3,5C000400,-0724,0835,12121,027.4,045.4,0.222,750.7,01.17,0.508
2017-05-14 01:08:00,1787E-3,5C000400,-0724,0834,12025,027.4,045.4,0.222,750.7,01.17,0.508
2017-05-14 01:09:00,1851E-3,5C000400,-0724,0834,12202,027.4,045.4,0.222,750.7,01.17,0.508
2017-05-14 01:10:00,1761E-3,5C000400,-0724,0835,12069,027.4,045.4,0.222,750.7,01.17,0.508
2017-05-14 01:11:00,1750E-3,5C000400,-0724,0834,12073,027.4,045.4,0.223,750.6,01.17,0.508
2017-05-14 01:12:00,1765E-3,5C000400,-0724,0835,12163,027.4,045.4,0.222,750.6,01.17,0.508
2017-05-14 01:13:00,1783E-3,5C000400,-0724,0836,12148,027.4,045.4,0.223,750.6,01.17,0.508
2017-05-14 01:14:00,1661E-3,5C000400,-0724,0835,12132,027.4,045.4,0.222,750.7,01.17,0.508
2017-05-14 01:15:00,1659E-3,5C000400,-0724,0835,12136,027.4,045.4,0.222,750.6,01.17,0.508
2017-05-14 01:16:00,1747E-3,5C000400,-0724,0834,12028,027.4,045.4,0.222,750.6,01.17,0.508
2017-05-14 01:17:00,1847E-3,5C000400,-0724,0835,11907,027.4,045.4,0.222,750.7,01.17,0.508
2017-05-14 01:18:00,1752E-3,5C000400,-0724,0835,12093,027.4,045.4,0.222,750.6,01.17,0.508
2017-05-14 01:19:00,1770E-3,5C000400,-0724,0835,12044,027.4,045.4,0.222,750.6,01.17,0.508
2017-05-14 01:20:00,1835E-3,5C000400,-0724,0835,12189,027.4,045.4,0.222,750.6,01.17,0.508
2017-05-14 01:21:00,1804E-3,5C000400,-0724,0835,11959,027.4,045.4,0.222,750.6,01.17,0.508
2017-05-14 01:22:00,1683E-3,5C000400,-0724,0836,12099,027.4,045.4,0.222,750.6,01.17,0.508
2017-05-14 01:23:00,1853E-3,5C000400,-0724,0836,12039,027.4,045.4,0.222,750.7,01.17,0.508
2017-05-14 01:24:00,1748E-3,5C000400,-0724,0836,12048,027.3,045.4,0.222,750.6,01.17,0.508
2017-05-14 01:25:00,1901E-3,5C000400,-0724,0835,11993,027.4,045.4,0.222,750.7,01.17,0.508
2017-05-14 01:26:00,1826E-3,5C000400,-0724,0835,12248,027.4,045.4,0.222,750.6,01.17,0.508
2017-05-14 01:27:00,1700E-3,5C000400,-0724,0835,12047,027.4,045.4,0.222,750.6,01.17,0.508
2017-05-14 01:28:00,1840E-3,5C000400,-0724,0835,12083,027.4,045.4,0.222,750.6,01.17,0.508
2017-05-14 01:29:00,1672E-3,5C000400,-0724,0835,12122,027.4,045.5,0.222,750.6,01.17,0.508
2017-05-14 01:30:00,1792E-3,5C000400,-0724,0835,12054,027.3,045.5,0.222,750.6,01.17,0.508
2017-05-14 01:31:00,1792E-3,5C000400,-0724,0834,12050,027.3,045.4,0.222,750.6,01.17,0.508
2017-05-14 01:32:00,1703E-3,5C000400,-0724,0835,12198,027.3,045.4,0.222,750.6,01.17,0.508
2017-05-14 01:33:00,1727E-3,5C000400,-0724,0835,11908,027.3,045.4,0.222,750.5,01.17,0.508
2017-05-14 01:34:00,1713E-3,5C000400,-0724,0835,12151,027.3,045.4,0.222,750.5,01.17,0.508
2017-05-14 01:35:00,1802E-3,5C000400,-0724,0835,12107,027.3,045.4,0.222,750.6,01.17,0.508
2017-05-14 01:36:00,1738E-3,5C000400,-0724,0835,11975,027.3,045.4,0.222,750.6,01.17,0.508
2017-05-14 01:37:00,1743E-3,5C000400,-0724,0835,12020,027.3,045.4,0.222,750.6,01.17,0.508
2017-05-14 01:38:00,1732E-3,5C000400,-0724,0835,12070,027.3,045.4,0.223,750.6,01.17,0.508
2017-05-14 01:39:00,1632E-3,5C000400,-0724,0835,12155,027.3,045.4,0.222,750.6,01.17,0.508
2017-05-14 01:40:00,1808E-3,5C000400,-0724,0835,12094,027.3,045.4,0.222,750.5,01.17,0.508
2017-05-14 01:41:00,1795E-3,5C000400,-0724,0836,12089,027.3,045.4,0.222,750.5,01.17,0.508
2017-05-14 01:42:00,1670E-3,5C000400,-0724,0835,12133,027.3,045.4,0.222,750.5,01.17,0.508
2017-05-14 01:43:00,1867E-3,5C000400,-0724,0835,12122,027.3,045.4,0.223,750.5,01.17,0.508
2017-05-14 01:44:00,1811E-3,5C000400,-0724,0835,12064,027.3,045.4,0.222,750.6,01.17,0.508
2017-05-14 01:45:00,1773E-3,5C000400,-0724,0835,12255,027.3,045.5,0.223,750.5,01.17,0.508
2017-05-14 01:46:00,1759E-3,5C000400,-0724,0835,12132,027.3,045.4,0.222,750.6,01.17,0.508
2017-05-14 01:47:00,1769E-3,5C000400,-0724,0836,12107,027.3,045.4,0.222,750.6,01.17,0.508
2017-05-14 01:48:00,1759E-3,5C000400,-0724,0835,12148,027.3,045.4,0.222,750.5,01.17,0.508
2017-05-14 01:49:00,1704E-3,5C000400,-0724,0835,12005,027.3,045.4,0.222,750.5,01.17,0.508
2017-05-14 01:50:00,1735E-3,5C000400,-0724,0835,12106,027.2,045.4,0.223,750.5,01.17,0.508
2017-05-14 01:51:00,1724E-3,5C000400,-0724,0835,12089,027.2,045.4,0.222,750.5,01.17,0.508
2017-05-14 01:52:00,1785E-3,5C000400,-0724,0836,12100,027.2,045.4,0.223,750.5,01.17,0.508
2017-05-14 01:53:00,1855E-3,5C000400,-0724,0836,12144,027.2,045.4,0.222,750.5,01.17,0.508
2017-05-14 01:54:00,1780E-3,5C000400,-0724,0835,11920,027.2,045.4,0.223,750.4,01.17,0.508
2017-05-14 01:55:00,1716E-3,5C000400,-0724,0835,12117,027.2,045.4,0.223,750.4,01.17,0.508
2017-05-14 01:56:00,1801E-3,5C000400,-0724,0835,12244,027.2,045.4,0.222,750.4,01.17,0.508
2017-05-14 01:57:00,1833E-3,5C000400,-0724,0835,12098,027.2,045.4,0.223,750.4,01.17,0.508
2017-05-14 01:58:00,1749E-3,5C000400,-0724,0835,12180,027.2,045.4,0.222,750.4,01.17,0.508
2017-05-14 01:59:00,1732E-3,5C000400,-0724,0834,12086,027.2,045.4,0.223,750.4,01.17,0.508
2017-05-14 02:00:00,1682E-3,5C000400,-0724,0835,12092,027.1,045.4,0.222,750.4,01.17,0.508
2017-05-14 02:01:00,1772E-3,5C000400,-0724,0836,11949,027.1,045.4,0.223,750.4,01.17,0.508
2017-05-14 02:02:00,1787E-3,5C000400,-0724,0835,11957,027.2,045.4,0.223,750.4,01.17,0.508
2017-05-14 02:03:00,1692E-3,5C000400,-0724,0835,12203,027.2,045.4,0.223,750.3,01.17,0.508
2017-05-14 02:04:00,1770E-3,5C000400,-0724,0836,12046,027.2,045.4,0.223,750.4,01.17,0.508
2017-05-14 02:05:00,1827E-3,5C000400,-0724,0835,12085,027.2,045.4,0.222,750.3,01.17,0.508
2017-05-14 02:06:00,1694E-3,5C000400,-0724,0834,12264,027.1,045.4,0.223,750.3,01.17,0.508
2017-05-14 02:07:00,1793E-3,5C000400,-0724,0834,12211,027.1,045.4,0.223,750.3,01.17,0.508
2017-05-14 02:08:00,1602E-3,5C000400,-0724,0834,12021,027.1,045.4,0.223,750.3,01.17,0.508
2017-05-14 02:09:00,1619E-3,5C000400,-0724,0835,12181,027.0,045.4,0.223,750.3,01.17,0.508
2017-05-14 02:10:00,1832E-3,5C000400,-0724,0834,12074,027.0,045.4,0.223,750.3,01.17,0.508
2017-05-14 02:11:00,1745E-3,5C000400,-0724,0835,12078,027.0,045.4,0.223,750.2,01.17,0.508
2017-05-14 02:12:00,1728E-3,5C000400,-0724,0834,12064,027.0,045.4,0.223,750.2,01.17,0.508
2017-05-14 02:13:00,1830E-3,5C000400,-0724,0835,12140,027.1,045.4,0.223,750.2,01.17,0.508
2017-05-14 02:14:00,1786E-3,5C000400,-0724,0834,12166,027.0,045.4,0.223,750.2,01.17,0.508
2017-05-14 02:15:00,1777E-3,5C000400,-0724,0835,12116,027.1,045.4,0.223,750.3,01.17,0.508
2017-05-14 02:16:00,1742E-3,5C000400,-0724,0835,12052,027.1,045.4,0.223,750.3,01.17,0.508
2017-05-14 02:17:00,1897E-3,5C000400,-0724,0834,12049,027.0,045.4,0.223,750.3,01.17,0.508
2017-05-14 02:18:00,1760E-3,5C000400,-0724,0835,12153,027.0,045.4,0.223,750.3,01.17,0.508
2017-05-14 02:19:00,1700E-3,5C000400,-0724,0835,12099,027.0,045.4,0.223,750.3,01.17,0.508
2017-05-14 02:20:00,1736E-3,5C000400,-0724,0834,12201,027.0,045.4,0.223,750.2,01.17,0.508
2017-05-14 02:21:00,1661E-3,5C000400,-0724,0836,12069,027.0,045.4,0.223,750.2,01.17,0.508
2017-05-14 02:22:00,1712E-3,5C000400,-0724,0835,12085,027.0,045.4,0.223,750.2,01.17,0.508
2017-05-14 02:23:00,1802E-3,5C000400,-0724,0835,12094,027.0,045.4,0.223,750.2,01.17,0.508
2017-05-14 02:24:00,1818E-3,5C000400,-0724,0834,12109,027.0,045.4,0.223,750.2,01.17,0.508
2017-05-14 02:25:00,1641E-3,5C000400,-0724,0835,11968,027.0,045.4,0.223,750.2,01.17,0.508
2017-05-14 02:26:00,1785E-3,5C000400,-0724,0835,12065,027.0,045.4,0.223,750.2,01.17,0.508
2017-05-14 02:27:00,1767E-3,5C000400,-0724,0835,12017,027.0,045.4,0.223,750.2,01.17,0.508
2017-05-14 02:28:00,1689E-3,5C000400,-0724,0835,11991,027.0,045.4,0.223,750.2,01.17,0.508
2017-05-14 02:29:00,1949E-3,5C000400,-0724,0835,12016,026.9,045.4,0.223,750.2,01.17,0.508
2017-05-14 02:30:00,1644E-3,5C000400,-0724,0835,12112,026.9,045.4,0.223,750.2,01.17,0.508
2017-05-14 02:31:00,1780E-3,5C000400,-0724,0835,12115,026.9,045.4,0.223,750.2,01.17,0.508
2017-05-14 02:32:00,1838E-3,5C000400,-0724,0834,12021,026.9,045.4,0.223,750.2,01.17,0.508
2017-05-14 02:33:00,1764E-3,5C000400,-0724,0834,12143,026.9,045.4,0.223,750.2,01.17,0.508
2017-05-14 02:34:00,1915E-3,5C000400,-0724,0835,12058,026.9,045.4,0.223,750.2,01.17,0.508
2017-05-14 02:35:00,1565E-3,5C000400,-0724,0835,11924,026.9,045.4,0.223,750.2,01.17,0.508
2017-05-14 02:36:00,1851E-3,5C000400,-0724,0835,12070,027.0,045.4,0.223,750.1,01.17,0.508
2017-05-14 02:37:00,1844E-3,5C000400,-0724,0835,11940,026.9,045.4,0.223,750.1,01.17,0.508
2017-05-14 02:38:00,1842E-3,5C000400,-0724,0835,12144,026.9,045.4,0.223,750.1,01.17,0.508
2017-05-14 02:39:00,1817E-3,5C000400,-0724,0835,12132,026.9,045.4,0.223,750.1,01.17,0.508
2017-05-14 02:40:00,1797E-3,5C000400,-0724,0834,12067,026.9,045.4,0.223,750.0,01.17,0.508
2017-05-14 02:41:00,1793E-3,5C000400,-0724,0834,12104,026.9,045.4,0.223,750.0,01.17,0.508
2017-05-14 02:42:00,1778E-3,5C000400,-0724,0835,12057,026.8,045.4,0.223,750.0,01.17,0.508
2017-05-14 02:43:00,1740E-3,5C000400,-0724,0836,12190,026.8,045.4,0.223,750.0,01.17,0.508
2017-05-14 02:44:00,1777E-3,5C000400,-0724,0834,11999,026.8,045.4,0.223,750.0,01.17,0.508
2017-05-14 02:45:00,1783E-3,5C000400,-0724,0834,12065,026.8,045.4,0.223,750.0,01.17,0.508
2017-05-14 02:46:00,1839E-3,5C000400,-0724,0834,11958,026.8,045.4,0.223,750.0,01.17,0.508
2017-05-14 02:47:00,1717E-3,5C000400,-0724,0835,12194,026.9,045.4,0.223,750.0,01.17,0.508
2017-05-14 02:48:00,1815E-3,5C000400,-0724,0835,12033,026.8,045.4,0.223,750.0,01.17,0.508
2017-05-14 02:49:00,1700E-3,5C000400,-0724,0835,12151,026.8,045.4,0.223,750.0,01.17,0.508
2017-05-14 02:50:00,1752E-3,5C000400,-0724,0834,12061,026.8,045.4,0.223,749.9,01.17,0.508
2017-05-14 02:51:00,1850E-3,5C000400,-0724,0834,12043,026.8,045.4,0.223,749.9,01.17,0.508
2017-05-14 02:52:00,1763E-3,5C000400,-0724,0835,12171,026.8,045.4,0.223,749.9,01.17,0.508
2017-05-14 02:53:00,1789E-3,5C000400,-0724,0834,11897,026.8,045.4,0.224,749.9,01.17,0.508
2017-05-14 02:54:00,1812E-3,5C000400,-0724,0834,12136,026.8,045.4,0.223,750.0,01.17,0.508
2017-05-14 02:55:00,1813E-3,5C000400,-0724,0834,12033,026.8,045.4,0.223,750.0,01.17,0.508
2017-05-14 02:56:00,1692E-3,5C000400,-0724,0835,12065,026.8,045.4,0.223,750.0,01.17,0.508
2017-05-14 02:57:00,1778E-3,5C000400,-0724,0834,11983,026.8,045.4,0.223,750.0,01.17,0.508
2017-05-14 02:58:00,1864E-3,5C000400,-0724,0834,12030,026.8,045.4,0.223,750.0,01.17,0.508
2017-05-14 02:59:00,1680E-3,5C000400,-0724,0834,12084,026.8,045.4,0.224,750.0,01.17,0.508
2017-05-14 03:00:00,1721E-3,5C000400,-0724,0835,12208,026.8,045.4,0.223,750.0,01.17,0.508
2017-05-14 03:01:00,1674E-3,5C000400,-0724,0835,12162,026.7,045.4,0.223,750.0,01.17,0.508
2017-05-14 03:02:00,1800E-3,5C000400,-0724,0834,12062,026.7,045.4,0.223,750.0,01.17,0.508
2017-05-14 03:03:00,1752E-3,5C000400,-0724,0834,12086,026.7,045.4,0.223,750.0,01.17,0.508
2017-05-14 03:04:00,1786E-3,5C000400,-0724,0834,12094,026.7,045.4,0.224,749.9,01.17,0.508
2017-05-14 03:05:00,1763E-3,5C000400,-0724,0835,12017,026.7,045.4,0.223,749.9,01.17,0.508
2017-05-14 03:06:00,1732E-3,5C000400,-0724,0835,12154,026.7,045.4,0.224,749.9,01.17,0.508
2017-05-14 03:07:00,1712E-3,5C000400,-0724,0834,11931,026.7,045.4,0.224,749.9,01.17,0.508
2017-05-14 03:08:00,1872E-3,5C000400,-0724,0834,12153,026.7,045.4,0.223,749.9,01.17,0.508
2017-05-14 03:09:00,1697E-3,5C000400,-0724,0835,12130,026.7,045.4,0.224,749.8,01.17,0.508
2017-05-14 03:10:00,1755E-3,5C000400,-0724,0834,12010,026.7,045.4,0.224,749.8,01.17,0.508
2017-05-14 03:11:00,1878E-3,5C000400,-0724,0834,12094,026.7,045.4,0.224,749.8,01.17,0.508
2017-05-14 03:12:00,1628E-3,5C000400,-0724,0834,11887,026.7,045.4,0.224,749.8,01.17,0.508
2017-05-14 03:13:00,1835E-3,5C000400,-0724,0835,12035,026.7,045.4,0.224,749.8,01.17,0.508
2017-05-14 03:14:00,1762E-3,5C000400,-0724,0835,12145,026.7,045.4,0.223,749.9,01.17,0.508
2017-05-14 03:15:00,1666E-3,5C000400,-0724,0835,12209,026.7,045.4,0.224,749.9,01.17,0.508
2017-05-14 03:16:00,1695E-3,5C000400,-0724,0835,12033,026.7,045.4,0.224,749.9,01.17,0.508
2017-05-14 03:17:00,1788E-3,5C000400,-0724,0835,11946,026.7,045.4,0.224,749.9,01.17,0.508
2017-05-14 03:18:00,1704E-3,5C000400,-0724,0834,12109,026.7,045.4,0.224,749.9,01.17,0.508
2017-05-14 03:19:00,1652E-3,5C000400,-0724,0835,12124,026.7,045.4,0.223,749.9,01.17,0.508
2017-05-14 03:20:00,1838E-3,5C000400,-0724,0834,11998,026.7,045.4,0.224,749.8,01.17,0.508
2017-05-14 03:21:00,1743E-3,5C000400,-0724,0834,12023,026.7,045.4,0.224,749.8,01.17,0.508
2017-05-14 03:22:00,1745E-3,5C000400,-0724,0836,12255,026.7,045.4,0.224,749.8,01.17,0.508
2017-05-14 03:23:00,1729E-3,5C000400,-0724,0836,12224,026.8,045.4,0.223,749.8,01.17,0.508
2017-05-14 03:24:00,1810E-3,5C000400,-0724,0834,11995,026.7,045.4,0.224,749.8,01.17,0.508
2017-05-14 03:25:00,1956E-3,5C000400,-0724,0835,12207,026.8,045.4,0.224,749.8,01.17,0.508
2017-05-14 03:26:00,1726E-3,5C000400,-0724,0835,12061,026.7,045.4,0.223,749.8,01.17,0.508
2017-05-14 03:27:00,1813E-3,5C000400,-0724,0835,12066,026.7,045.4,0.224,749.8,01.17,0.508
2017-05-14 03:28:00,1828E-3,5C000400,-0724,0835,11977,026.7,045.4,0.224,749.8,01.17,0.508
2017-05-14 03:29:00,1797E-3,5C000400,-0724,0835,12149,026.7,045.4,0.224,749.8,01.17,0.508
2017-05-14 03:30:00,1806E-3,5C000400,-0724,0835,12165,026.6,045.4,0.224,749.8,01.17,0.508
2017-05-14 03:31:00,1798E-3,5C000400,-0724,0836,12022,026.6,045.4,0.223,749.8,01.17,0.508
2017-05-14 03:32:00,1802E-3,5C000400,-0724,0835,12187,026.6,045.4,0.224,749.8,01.17,0.508
2017-05-14 03:33:00,1780E-3,5C000400,-0724,0835,12018,026.6,045.4,0.224,749.8,01.17,0.508
2017-05-14 03:34:00,1687E-3,5C000400,-0724,0835,12153,026.6,045.4,0.224,749.8,01.17,0.508
2017-05-14 03:35:00,1692E-3,5C000400,-0724,0835,11983,026.6,045.4,0.224,749.8,01.17,0.508
2017-05-14 03:36:00,1822E-3,5C000400,-0724,0835,12180,026.7,045.4,0.224,749.8,01.17,0.508
2017-05-14 03:37:00,1780E-3,5C000400,-0724,0835,12042,026.7,045.4,0.224,749.8,01.17,0.508
2017-05-14 03:38:00,1839E-3,5C000400,-0724,0835,11987,026.6,045.4,0.224,749.8,01.17,0.508
2017-05-14 03:39:00,1720E-3,5C000400,-0724,0835,12083,026.7,045.4,0.224,749.8,01.17,0.508
2017-05-14 03:40:00,1746E-3,5C000400,-0724,0834,12083,026.6,045.4,0.224,749.8,01.17,0.508
2017-05-14 03:41:00,1601E-3,5C000400,-0724,0835,12132,026.6,045.4,0.224,749.8,01.17,0.508
2017-05-14 03:42:00,1763E-3,5C000400,-0724,0835,12021,026.6,045.4,0.224,749.7,01.17,0.508
2017-05-14 03:43:00,1784E-3,5C000400,-0724,0834,12164,026.6,045.4,0.224,749.7,01.17,0.508
2017-05-14 03:44:00,1717E-3,5C000400,-0724,0834,11955,026.7,045.4,0.224,749.7,01.17,0.508
2017-05-14 03:45:00,1760E-3,5C000400,-0724,0835,12141,026.6,045.4,0.224,749.7,01.17,0.508
2017-05-14 03:46:00,1858E-3,5C000400,-0724,0835,12064,026.6,045.4,0.224,749.6,01.17,0.508
2017-05-14 03:47:00,1780E-3,5C000400,-0724,0834,12155,026.6,045.4,0.224,749.6,01.17,0.508
2017-05-14 03:48:00,1794E-3,5C000400,-0724,0835,12027,026.6,045.4,0.224,749.6,01.17,0.508
2017-05-14 03:49:00,1766E-3,5C000400,-0724,0835,12088,026.6,045.4,0.224,749.6,01.17,0.508
2017-05-14 03:50:00,1589E-3,5C000400,-0724,0835,12148,026.6,045.4,0.224,749.6,01.17,0.508
2017-05-14 03:51:00,1725E-3,5C000400,-0724,0834,12068,026.6,045.4,0.223,749.6,01.17,0.508
2017-05-14 03:52:00,1711E-3,5C000400,-0724,0835,12121,026.6,045.4,0.224,749.6,01.17,0.508
2017-05-14 03:53:00,1734E-3,5C000400,-0724,0834,12119,026.6,045.4,0.224,749.6,01.17,0.508
2017-05-14 03:54:00,1790E-3,5C000400,-0724,0835,12048,026.5,045.4,0.223,749.6,01.17,0.508
2017-05-14 03:55:00,1698E-3,5C000400,-0724,0834,12156,026.5,045.4,0.224,749.6,01.17,0.508
2017-05-14 03:56:00,1686E-3,5C000400,-0724,0834,12114,026.6,045.4,0.224,749.6,01.17,0.508
2017-05-14 03:57:00,1724E-3,5C000400,-0724,0835,11914,026.6,045.4,0.224,749.6,01.17,0.508
2017-05-14 03:58:00,1822E-3,5C000400,-0724,0835,12037,026.6,045.4,0.224,749.6,01.17,0.508
2017-05-14 03:59:00,1752E-3,5C000400,-0724,0835,12122,026.6,045.4,0.224,749.6,01.17,0.508
2017-05-14 04:00:00,1863E-3,5C000400,-0724,0835,12186,026.6,045.4,0.224,749.6,01.17,0.508
2017-05-14 04:01:00,1700E-3,5C000400,-0724,0834,12028,026.6,045.4,0.224,749.6,01.17,0.508
2017-05-14 04:02:00,1711E-3,5C000400,-0724,0834,11982,026.6,045.4,0.224,749.6,01.17,0.508
2017-05-14 04:03:00,1605E-3,5C000400,-0724,0834,12134,026.6,045.4,0.224,749.6,01.17,0.508
2017-05-14 04:04:00,1660E-3,5C000400,-0724,0834,12151,026.6,045.4,0.224,749.6,01.17,0.508
2017-05-14 04:05:00,1711E-3,5C000400,-0724,0834,12125,026.6,045.4,0.224,749.6,01.17,0.508
2017-05-14 04:06:00,1901E-3,5C000400,-0724,0834,12008,026.6,045.4,0.224,749.5,01.17,0.508
2017-05-14 04:07:00,1749E-3,5C000400,-0724,0835,12073,026.6,045.4,0.224,749.5,01.17,0.508
2017-05-14 04:08:00,1757E-3,5C000400,-0724,0834,12033,026.6,045.4,0.224,749.5,01.17,0.508
2017-05-14 04:09:00,1747E-3,5C000400,-0724,0834,12123,026.6,045.4,0.224,749.5,01.17,0.508
2017-05-14 04:10:00,1698E-3,5C000400,-0724,0835,12104,026.6,045.4,0.224,749.5,01.17,0.508
2017-05-14 04:11:00,1787E-3,5C000400,-0724,0834,12137,026.6,045.4,0.224,749.5,01.17,0.508
2017-05-14 04:12:00,1624E-3,5C000400,-0724,0835,12042,026.5,045.4,0.224,749.5,01.17,0.508
2017-05-14 04:13:00,1766E-3,5C000400,-0724,0834,12217,026.5,045.4,0.224,749.4,01.17,0.508
2017-05-14 04:14:00,1910E-3,5C000400,-0724,0834,12221,026.5,045.4,0.224,749.4,01.17,0.508
2017-05-14 04:15:00,1826E-3,5C000400,-0724,0835,12063,026.5,045.4,0.224,749.4,01.17,0.508
2017-05-14 04:16:00,1871E-3,5C000400,-0724,0834,12081,026.6,045.4,0.224,749.4,01.17,0.508
2017-05-14 04:17:00,1832E-3,5C000400,-0724,0835,12102,026.6,045.4,0.224,749.4,01.17,0.508
2017-05-14 04:18:00,1724E-3,5C000400,-0724,0834,12102,026.5,045.4,0.224,749.4,01.17,0.508
2017-05-14 04:19:00,1815E-3,5C000400,-0724,0835,12231,026.5,045.4,0.224,749.4,01.17,0.508
2017-05-14 04:20:00,1891E-3,5C000400,-0724,0834,12046,026.5,045.4,0.224,749.4,01.17,0.508